Overview Statistics Trail Chart Weather Telemetry Raw packets
 

This is the latest recevied weather packets stored in our database for station/object UHMM. If no packets are shown the sender has not sent any weather packets the latest 10 day(s).

<< 1 2 3 4 5 6 >>
Time Temp. Humidity Pressure Rain* Wind** Luminosity Snow
1778119208 2.78° C 74% 1001 hPa - - - -
1778115607 3.89° C 64% 1001 hPa - - - -
1778113807 3.89° C 60% 1001 hPa - - - -
1778112007 3.89° C 60% 1001 hPa - - - -
1778110207 3.89° C 64% 1001 hPa - - - -
1778108406 3.89° C 60% 1000 hPa - - - -
1778106607 3.89° C 60% 1000 hPa - - - -
1778104807 3.89° C 60% 1000 hPa - - - -
1778103007 3.89° C 64% 1000 hPa - - - -
1778101209 2.78° C 69% 1000 hPa - - - -
1778099408 2.78° C 69% 1000 hPa - - - -
1778095809 1.67° C 80% 1000 hPa - - - -
1778094008 1.67° C 80% 1000 hPa - - - -
1778092209 1.67° C 80% 1000 hPa - - - -
1778090432 1.67° C 80% 999 hPa - - - -
1778086808 1.67° C 80% 999 hPa - - - -
1778083207 2.78° C 74% 999 hPa - - - -
1778081409 2.78° C 74% 999 hPa - - - -
1778077807 1.67° C 80% 998 hPa - - - -
1778076008 1.67° C 80% 998 hPa - - - -
1778074211 1.67° C 80% 998 hPa - - - -
1778072407 2.78° C 80% 997 hPa - - - -
1778070609 2.78° C 80% 997 hPa - - - -
1778068807 0.56° C 93% 997 hPa - - - -
1778063407 0.56° C 10% - - - - -

* Rain since midnight (hover to see other rain measurements)
** Current wind speed in m/s (hover to see current wind gust speed)